User: anonymous   Login
Location: Potawatomi Wildlife Park
(41.2308°N, 86.1050°W)
Time: 04:16:22
(UTC-05:00)
Language:

SL-16 R/B - Orbit

View from above orbital plane
View from above orbital plane
View from above satellite
View from above satellite

Ground track
Ground track

The orbit data is extracted from the following two-line orbital elements,

1 27006U 01056F   18015.90260928 -.00000053  00000-0 -11499-4 0  9996
2 27006  99.3429 155.8814 0015416 114.8331  38.0383 13.70967708805649
Epoch (UTC): 15 January 2018 21:39:45
Eccentricity: 0.0015416
inclination: 99.3429°
perigee height: 985 km
apogee height: 1007 km
right ascension of ascending node: 155.8814°
argument of perigee: 114.8331°
revolutions per day: 13.70967708
mean anomaly at epoch: 38.0383°
orbit number at epoch: 80564

The dashed part of the orbit path shows where the satellite is in the earth's shadow,  

DLR